W4RJF Weather Reports


Display with metric or nautical units.
time (UTC)temp
F
wind
direction
speed
MPH
gust
MPH
rain 1hr
in
rain 24hr
in
rain mn
in
humidity
%
barometer
mb
20260904052516 79 199 0.0 0.0 0.00 0.00 0.00 82 1017.4
20260904052020 79 199 0.0 0.0 0.00 0.00 0.00 83 1017.4
20260904051535 79 199 0.0 0.0 0.00 0.00 0.00 82 1017.5
20260904051018 79 199 0.0 0.0 0.00 0.00 0.00 82 1017.5
20260904050515 79 199 0.0 0.0 0.00 0.00 0.00 82 1017.4
20260904050018 79 199 0.0 0.0 0.00 0.00 0.00 83 1017.5
20260904045507 79 199 0.0 0.0 0.00 0.00 0.00 82 1017.3
20260904045009 79 199 0.0 0.0 0.00 0.00 0.00 82 1017.2
20260904044539 79 199 0.0 0.0 0.00 0.00 0.00 82 1017.2
20260904044010 79 199 0.0 0.0 0.00 0.00 0.00 82 1017.2
20260904043514 80 199 0.0 0.0 0.00 0.00 0.00 82 1017.2
20260904043029 80 199 0.0 0.0 0.00 0.00 0.00 82 1017.3
20260904042516 80 199 0.0 0.0 0.00 0.00 0.00 81 1017.3
20260904042016 80 199 0.0 1.0 0.00 0.00 0.00 81 1017.1
20260904041533 80 199 0.0 1.0 0.00 0.00 0.00 81 1017.2
20260904041021 80 190 0.0 0.0 0.00 0.00 0.00 82 1017.3
20260904040517 80 190 0.0 0.0 0.00 0.00 0.00 82 1017.1
20260904040034 80 190 0.0 0.0 0.00 0.00 0.00 81 1017.1
20260904035516 80 190 0.0 0.0 0.00 0.00 0.00 81 1017.2
20260904035009 80 190 0.0 0.0 0.00 0.00 0.00 82 1017.2
20260904034524 81 190 0.0 0.0 0.00 0.00 0.00 81 1017.2
20260904034009 81 190 0.0 0.0 0.00 0.00 0.00 80 1017.2
20260904033513 81 188 0.0 0.0 0.00 0.00 0.00 80 1017.3
20260904033026 81 188 0.0 0.0 0.00 0.00 0.00 80 1017.5
20260904032513 81 188 0.0 0.0 0.00 0.00 0.00 79 1017.5
20260904032013 82 188 0.0 0.0 0.00 0.00 0.00 79 1017.4
20260904031530 82 188 0.0 0.0 0.00 0.00 0.00 79 1017.4
20260904031015 82 188 0.0 0.0 0.00 0.00 0.00 79 1017.5
20260904030515 82 188 0.0 0.0 0.00 0.00 0.00 78 1017.5
20260904030032 82 188 0.0 0.0 0.00 0.00 0.00 78 1017.5
20260904025517 82 188 0.0 0.0 0.00 0.00 0.00 78 1017.5
20260904025017 82 188 0.0 0.0 0.00 0.00 0.00 78 1017.5
20260904024536 82 188 0.0 0.0 0.00 0.00 0.00 78 1017.6
20260904024010 83 188 0.0 0.0 0.00 0.00 0.00 78 1017.5
20260904023509 83 188 0.0 0.0 0.00 0.00 0.00 77 1017.6
20260904023024 83 188 0.0 0.0 0.00 0.00 0.00 77 1017.4
20260904022511 83 188 0.0 1.0 0.00 0.00 0.00 77 1017.5
20260904022014 83 198 0.0 2.0 0.00 0.00 0.00 77 1017.6
20260904021530 84 193 0.0 2.0 0.00 0.00 0.00 76 1017.6
20260904021014 84 185 0.0 0.0 0.00 0.00 0.00 76 1017.4
20260904020516 84 184 0.0 0.0 0.00 0.00 0.00 76 1017.4
20260904020036 84 198 0.0 2.0 0.00 0.00 0.00 75 1017.5
20260904015517 84 198 0.0 2.0 0.00 0.00 0.00 75 1017.5
20260904015018 84 198 0.0 2.0 0.00 0.00 0.00 75 1017.3
20260904014534 84 184 0.0 2.0 0.00 0.00 0.00 75 1017.3
20260904014018 84 185 0.0 2.0 0.00 0.00 0.00 75 1017.1
20260904013517 84 196 0.0 0.0 0.00 0.00 0.00 75 1017.0
20260904013036 84 196 0.0 0.0 0.00 0.00 0.00 75 1017.0
20260904012515 84 196 0.0 0.0 0.00 0.00 0.00 75 1016.8
20260904012022 84 196 0.0 0.0 0.00 0.00 0.00 74 1016.6
20260904011536 84 196 0.0 0.0 0.00 0.00 0.00 74 1016.6
20260904011015 84 196 0.0 0.0 0.00 0.00 0.00 74 1016.7
20260904010516 84 196 0.0 0.0 0.00 0.00 0.00 73 1016.5
20260904010044 84 196 0.0 0.0 0.00 0.00 0.00 74 1016.4
20260904005517 84 196 0.0 0.0 0.00 0.00 0.00 74 1016.3
20260904005017 84 196 0.0 0.0 0.00 0.00 0.00 74 1016.2
20260904004532 85 196 0.0 0.0 0.00 0.00 0.00 73 1016.1
20260904004018 85 196 0.0 0.0 0.00 0.00 0.00 72 1016.1
20260904003521 85 196 0.0 0.0 0.00 0.00 0.00 72 1016.1
20260904003034 86 196 0.0 0.0 0.00 0.00 0.00 71 1016.0
20260904002518 86 196 0.0 0.0 0.00 0.00 0.00 71 1015.9
20260904002018 86 196 0.0 0.0 0.00 0.00 0.00 70 1015.9
20260904001525 86 196 0.0 0.0 0.00 0.00 0.00 70 1015.9
20260904001015 87 196 0.0 0.0 0.00 0.00 0.00 69 1015.7
20260904000513 87 196 0.0 0.0 0.00 0.00 0.00 68 1015.7
20260904000034 87 196 0.0 0.0 0.00 0.00 0.00 68 1015.6
20260903235516 87 196 0.0 0.0 0.00 0.00 0.00 67 1015.5
20260903235016 88 196 0.0 0.0 0.00 0.00 0.00 66 1015.5
20260903234535 88 196 0.0 0.0 0.00 0.00 0.00 64 1015.5
20260903234018 89 196 0.0 0.0 0.00 0.00 0.00 64 1015.6
20260903233522 89 196 0.0 0.0 0.00 0.00 0.00 64 1015.5
20260903233034 89 196 0.0 2.0 0.00 0.00 0.00 63 1015.4
20260903232517 90 201 0.0 2.0 0.00 0.00 0.00 63 1015.3
20260903232018 90 200 0.0 2.0 0.00 0.00 0.00 62 1015.3
20260903231534 90 200 1.0 2.0 0.00 0.00 0.00 61 1015.3
20260903231018 91 192 0.0 2.0 0.00 0.00 0.00 61 1015.3
20260903230517 91 197 0.0 2.0 0.00 0.00 0.00 61 1015.4
20260903230027 91 196 0.0 2.0 0.00 0.00 0.00 62 1015.5
20260903225513 91 193 0.0 2.0 0.00 0.00 0.00 61 1015.4
20260903225015 92 180 0.0 2.0 0.00 0.00 0.00 60 1015.4
20260903224515 92 209 0.0 2.0 0.00 0.00 0.00 60 1015.5
20260903224004 92 210 0.0 2.0 0.00 0.00 0.00 58 1015.6
20260903223504 92 189 0.0 2.0 0.00 0.00 0.00 58 1015.5
20260903223016 92 186 0.0 2.0 0.00 0.00 0.00 58 1015.5
20260903222509 93 200 0.0 1.0 0.00 0.00 0.00 58 1015.6
20260903222011 93 200 0.0 2.0 0.00 0.00 0.00 57 1015.6
20260903221523 94 209 0.0 3.0 0.00 0.00 0.00 56 1015.4
20260903221016 94 189 0.0 3.0 0.00 0.00 0.00 55 1015.4
20260903220513 94 192 1.0 3.0 0.00 0.00 0.00 55 1015.5
20260903220038 94 208 1.0 2.0 0.00 0.00 0.00 56 1015.6
20260903215514 94 185 0.0 2.0 0.00 0.00 0.00 57 1015.5
20260903215014 94 188 1.0 2.0 0.00 0.00 0.00 56 1015.5
20260903214535 94 200 1.0 3.0 0.00 0.00 0.00 56 1015.6
20260903214017 93 202 1.0 3.0 0.00 0.00 0.00 56 1015.6
20260903213504 93 246 1.0 2.0 0.00 0.00 0.00 56 1015.5
20260903213012 93 196 0.0 4.0 0.00 0.00 0.00 56 1015.5
20260903212508 93 175 1.0 4.0 0.00 0.00 0.00 56 1015.6
20260903212005 93 192 1.0 3.0 0.00 0.00 0.00 56 1015.5
20260903211551 93 196 0.0 3.0 0.00 0.00 0.00 56 1015.5
20260903211014 94 192 0.0 3.0 0.00 0.00 0.00 55 1015.5
20260903210510 94 194 1.0 3.0 0.00 0.00 0.00 54 1015.5
20260903210025 95 208 0.0 4.0 0.00 0.00 0.00 53 1015.5
20260903205513 95 175 0.0 5.0 0.00 0.00 0.00 52 1015.5
20260903205014 96 195 1.0 5.0 0.00 0.00 0.00 51 1015.4
20260903204528 97 195 0.0 2.0 0.00 0.00 0.00 50 1015.5
20260903204016 97 209 0.0 3.0 0.00 0.00 0.00 51 1015.6
20260903203513 97 177 1.0 4.0 0.00 0.00 0.00 51 1015.6
20260903203034 97 179 1.0 4.0 0.00 0.00 0.00 50 1015.6
20260903202505 96 207 0.0 4.0 0.00 0.00 0.00 50 1015.6
20260903202005 96 200 1.0 2.0 0.00 0.00 0.00 50 1015.6
20260903201512 96 178 0.0 2.0 0.00 0.00 0.00 50 1015.7
20260903201009 96 241 0.0 2.0 0.00 0.00 0.00 49 1015.8
20260903200510 96 255 0.0 2.0 0.00 0.00 0.00 50 1015.8
20260903200023 96 216 1.0 2.0 0.00 0.00 0.00 51 1015.8
20260903195512 96 221 1.0 3.0 0.00 0.00 0.00 49 1015.9
20260903195013 97 194 1.0 3.0 0.00 0.00 0.00 50 1016.0
20260903194528 97 198 0.0 3.0 0.00 0.00 0.00 51 1016.0
20260903194015 97 207 0.0 3.0 0.00 0.00 0.00 49 1016.1
20260903193515 97 170 0.0 2.0 0.00 0.00 0.00 49 1016.1
20260903193032 97 199 1.0 3.0 0.00 0.00 0.00 50 1016.2
20260903192517 98 198 1.0 3.0 0.00 0.00 0.00 48 1016.2
20260903192016 99 204 1.0 2.0 0.00 0.00 0.00 48 1016.3
20260903191533 99 178 0.0 2.0 0.00 0.00 0.00 47 1016.4
20260903191005 98 169 0.0 4.0 0.00 0.00 0.00 47 1016.4
20260903190507 98 240 0.0 5.0 0.00 0.00 0.00 47 1016.4
20260903190017 98 213 1.0 5.0 0.00 0.00 0.00 47 1016.6
20260903185511 97 246 0.0 2.0 0.00 0.00 0.00 48 1016.6
20260903185012 100 281 0.0 2.0 0.00 0.00 0.00 43 1016.7
20260903184528 100 196 0.0 2.0 0.00 0.00 0.00 46 1016.8
20260903184021 100 171 1.0 2.0 0.00 0.00 0.00 44 1016.8
20260903183514 99 186 0.0 2.0 0.00 0.00 0.00 46 1016.8
20260903183031 99 169 0.0 2.0 0.00 0.00 0.00 45 1016.9
20260903182516 99 201 1.0 2.0 0.00 0.00 0.00 45 1016.9
20260903182014 99 161 0.0 4.0 0.00 0.00 0.00 47 1016.9
20260903181532 98 207 1.0 4.0 0.00 0.00 0.00 47 1017.0
20260903181022 98 198 0.0 2.0 0.00 0.00 0.00 48 1016.9
20260903180516 97 186 0.0 2.0 0.00 0.00 0.00 47 1017.0
20260903180035 96 289 0.0 2.0 0.00 0.00 0.00 49 1017.0
20260903175509 96 184 0.0 2.0 0.00 0.00 0.00 50 1017.1
20260903175009 96 189 1.0 3.0 0.00 0.00 0.00 50 1017.2
20260903174537 96 248 1.0 3.0 0.00 0.00 0.00 50 1017.2
20260903174017 96 189 1.0 2.0 0.00 0.00 0.00 51 1017.2
20260903173511 95 234 0.0 2.0 0.00 0.00 0.00 51 1017.2
20260903173029 95 163 0.0 3.0 0.00 0.00 0.00 51 1017.3
20260903172514 95 186 1.0 3.0 0.00 0.00 0.00 51 1017.4
20260903172014 94 201 0.0 2.0 0.00 0.00 0.00 53 1017.4
20260903171533 94 352 0.0 2.0 0.00 0.00 0.00 52 1017.4
20260903171013 94 56 0.0 3.0 0.00 0.00 0.00 55 1017.5
20260903170517 94 206 1.0 3.0 0.00 0.00 0.00 54 1017.5
20260903170040 94 174 0.0 2.0 0.00 0.00 0.00 53 1017.6
20260903165519 94 196 0.0 2.0 0.00 0.00 0.00 53 1017.6
20260903165017 93 190 0.0 2.0 0.00 0.00 0.00 52 1017.8
20260903164519 93 338 0.0 1.0 0.00 0.00 0.00 53 1017.9
20260903164010 93 276 0.0 2.0 0.00 0.00 0.00 54 1017.9
20260903163513 93 329 0.0 2.0 0.00 0.00 0.00 53 1017.9
20260903163027 93 232 0.0 3.0 0.00 0.00 0.00 53 1018.0
20260903162514 92 202 0.0 3.0 0.00 0.00 0.00 57 1018.1
20260903162012 92 248 0.0 2.0 0.00 0.00 0.00 57 1018.0
20260903161532 92 352 0.0 2.0 0.00 0.00 0.00 59 1018.1
20260903161020 91 35 0.0 2.0 0.00 0.00 0.00 59 1018.1
20260903160516 91 282 1.0 2.0 0.00 0.00 0.00 58 1018.0
20260903160034 91 272 0.0 2.0 0.00 0.00 0.00 62 1018.0
20260903155515 91 197 0.0 1.0 0.00 0.00 0.00 62 1018.1
20260903155015 91 319 0.0 1.0 0.00 0.00 0.00 63 1018.1
20260903154535 91 344 0.0 2.0 0.00 0.00 0.00 63 1018.2
20260903154019 91 250 0.0 2.0 0.00 0.00 0.00 65 1018.2
20260903153511 91 97 0.0 2.0 0.00 0.00 0.00 63 1018.2
20260903153023 90 262 0.0 2.0 0.00 0.00 0.00 64 1018.2
20260903152513 90 307 0.0 2.0 0.00 0.00 0.00 65 1018.2
20260903152013 89 215 1.0 2.0 0.00 0.00 0.00 66 1018.3
20260903151532 89 333 0.0 2.0 0.00 0.00 0.00 66 1018.3
20260903151018 89 19 0.0 2.0 0.00 0.00 0.00 67 1018.3
20260903150514 88 256 0.0 3.0 0.00 0.00 0.00 68 1018.3
20260903150032 88 325 1.0 3.0 0.00 0.00 0.00 68 1018.3
20260903145518 88 100 0.0 2.0 0.00 0.00 0.00 71 1018.3
20260903145019 88 101 0.0 2.0 0.00 0.00 0.00 71 1018.2
20260903144534 87 84 0.0 0.0 0.00 0.00 0.00 72 1018.2
20260903144018 87 84 0.0 0.0 0.00 0.00 0.00 73 1018.2
20260903143517 86 84 0.0 2.0 0.00 0.00 0.00 73 1018.3
20260903143039 86 98 0.0 2.0 0.00 0.00 0.00 73 1018.1
20260903142519 86 184 0.0 2.0 0.00 0.00 0.00 76 1018.1
20260903142011 85 44 0.0 2.0 0.00 0.00 0.00 75 1018.1
20260903141527 85 352 0.0 2.0 0.00 0.00 0.00 76 1018.1
20260903141014 85 302 0.0 2.0 0.00 0.00 0.00 76 1018.1
20260903140516 84 190 0.0 2.0 0.00 0.00 0.00 78 1018.0
20260903140030 84 188 0.0 4.0 0.00 0.00 0.00 77 1018.0
20260903135515 84 42 0.0 4.0 0.00 0.00 0.00 78 1018.0
20260903135018 83 40 0.0 2.0 0.00 0.00 0.00 79 1017.9
20260903134512 83 276 0.0 2.0 0.00 0.00 0.00 82 1018.0
20260903134011 82 12 0.0 2.0 0.00 0.00 0.00 81 1018.0
20260903133509 82 207 0.0 2.0 0.00 0.00 0.00 82 1018.0
20260903133017 82 202 0.0 1.0 0.00 0.00 0.00 83 1017.9
20260903132508 81 200 0.0 0.0 0.00 0.00 0.00 83 1018.0
20260903132012 81 213 0.0 2.0 0.00 0.00 0.00 85 1018.1
20260903131524 81 206 0.0 2.0 0.00 0.00 0.00 85 1018.0
20260903131014 81 205 0.0 2.0 0.00 0.00 0.00 85 1018.1
20260903130515 80 196 0.0 2.0 0.00 0.00 0.00 85 1018.2
20260903130028 80 196 0.0 1.0 0.00 0.00 0.00 87 1018.2
20260903125504 79 13 0.0 0.0 0.00 0.00 0.00 88 1018.2
20260903125004 79 16 0.0 0.0 0.00 0.00 0.00 88 1018.1
20260903124508 79 95 0.0 0.0 0.00 0.00 0.00 89 1018.2
20260903124005 78 98 0.0 0.0 0.00 0.00 0.00 89 1018.1
20260903123508 78 98 0.0 0.0 0.00 0.00 0.00 90 1018.2
20260903123016 78 98 0.0 0.0 0.00 0.00 0.00 90 1018.2
20260903122510 77 98 0.0 0.0 0.00 0.00 0.00 91 1018.2
20260903122010 77 98 0.0 0.0 0.00 0.00 0.00 91 1018.2
20260903121521 77 98 0.0 0.0 0.00 0.00 0.00 92 1018.3
20260903121013 76 98 0.0 0.0 0.00 0.00 0.00 92 1018.4
20260903120513 76 98 0.0 0.0 0.00 0.00 0.00 93 1018.4
20260903120029 76 98 0.0 0.0 0.00 0.00 0.00 93 1018.4
20260903115514 76 98 0.0 0.0 0.00 0.00 0.00 93 1018.4
20260903115020 75 98 0.0 0.0 0.00 0.00 0.00 94 1018.3
20260903114510 75 98 0.0 0.0 0.00 0.00 0.00 94 1018.4
20260903114005 75 98 0.0 0.0 0.00 0.00 0.00 94 1018.3
20260903113506 75 98 0.0 0.0 0.00 0.00 0.00 94 1018.4
20260903113016 75 98 0.0 0.0 0.00 0.00 0.00 94 1018.3
20260903112508 75 98 0.0 0.0 0.00 0.00 0.00 94 1018.3
20260903112013 75 98 0.0 0.0 0.00 0.00 0.00 94 1018.3
20260903111543 75 98 0.0 0.0 0.00 0.00 0.00 94 1018.3
20260903111011 75 98 0.0 0.0 0.00 0.00 0.00 94 1018.1
20260903110512 74 98 0.0 0.0 0.00 0.00 0.00 94 1018.1
20260903110027 75 98 0.0 0.0 0.00 0.00 0.00 94 1018.0
20260903105519 74 98 0.0 0.0 0.00 0.00 0.00 94 1018.0
20260903105014 74 98 0.0 0.0 0.00 0.00 0.00 94 1017.9
20260903104539 75 98 0.0 0.0 0.00 0.00 0.00 94 1017.9
20260903104016 74 98 0.0 0.0 0.00 0.00 0.00 94 1017.9
20260903103516 74 98 0.0 0.0 0.00 0.00 0.00 94 1017.8
20260903103015 74 98 0.0 0.0 0.00 0.00 0.00 94 1017.8
20260903102508 74 98 0.0 0.0 0.00 0.00 0.00 93 1017.7
20260903102010 74 98 0.0 0.0 0.00 0.00 0.00 94 1017.8
20260903101519 74 98 0.0 0.0 0.00 0.00 0.00 94 1017.6
20260903101010 74 98 0.0 0.0 0.00 0.00 0.00 94 1017.6
20260903100509 74 98 0.0 0.0 0.00 0.00 0.00 93 1017.6
20260903100028 74 98 0.0 0.0 0.00 0.00 0.00 93 1017.6
20260903095513 74 98 0.0 0.0 0.00 0.00 0.00 93 1017.6
20260903095013 75 98 0.0 0.0 0.00 0.00 0.00 93 1017.5
20260903094530 75 98 0.0 0.0 0.00 0.00 0.00 93 1017.5
20260903094016 75 98 0.0 0.0 0.00 0.00 0.00 93 1017.5
20260903093520 75 98 0.0 0.0 0.00 0.00 0.00 93 1017.5
20260903093039 75 98 0.0 0.0 0.00 0.00 0.00 93 1017.4
20260903092517 75 98 0.0 0.0 0.00 0.00 0.00 93 1017.4
20260903092007 75 98 0.0 0.0 0.00 0.00 0.00 93 1017.4
20260903091529 75 98 0.0 0.0 0.00 0.00 0.00 93 1017.4
20260903091008 75 98 0.0 0.0 0.00 0.00 0.00 93 1017.4
20260903090508 75 78 0.0 0.0 0.00 0.00 0.00 93 1017.4
20260903090025 75 78 0.0 0.0 0.00 0.00 0.00 93 1017.4
20260903085511 75 78 0.0 0.0 0.00 0.00 0.00 92 1017.3
20260903085013 75 78 0.0 0.0 0.00 0.00 0.00 92 1017.3
20260903084534 75 78 0.0 0.0 0.00 0.00 0.00 92 1017.4
20260903084016 75 78 0.0 0.0 0.00 0.00 0.00 92 1017.3
20260903083515 75 78 0.0 0.0 0.00 0.00 0.00 92 1017.2
20260903083029 75 78 0.0 0.0 0.00 0.00 0.00 92 1017.2
20260903082517 75 78 0.0 0.0 0.00 0.00 0.00 92 1017.1
20260903082017 75 78 0.0 0.0 0.00 0.00 0.00 92 1017.2
20260903081535 75 78 0.0 0.0 0.00 0.00 0.00 92 1017.1
20260903081016 75 78 0.0 0.0 0.00 0.00 0.00 92 1017.1
20260903080511 75 78 0.0 0.0 0.00 0.00 0.00 92 1017.1
20260903080021 75 78 0.0 0.0 0.00 0.00 0.00 91 1016.9
20260903075514 75 61 0.0 0.0 0.00 0.00 0.00 91 1016.9
20260903075010 75 61 0.0 0.0 0.00 0.00 0.00 91 1016.8
20260903074528 75 61 0.0 0.0 0.00 0.00 0.00 91 1017.0
20260903074013 75 61 0.0 0.0 0.00 0.00 0.00 91 1016.9
20260903073514 75 61 0.0 0.0 0.00 0.00 0.00 91 1016.9
20260903073042 75 61 0.0 0.0 0.00 0.00 0.00 90 1016.9
20260903072515 75 61 0.0 0.0 0.00 0.00 0.00 90 1016.9
20260903072016 75 61 0.0 0.0 0.00 0.00 0.00 90 1016.8
20260903071534 75 61 0.0 0.0 0.00 0.00 0.00 90 1016.8
20260903071017 75 61 0.0 0.0 0.00 0.00 0.00 89 1016.9
20260903070519 75 61 0.0 0.0 0.00 0.00 0.00 89 1016.9
20260903070038 75 61 0.0 0.0 0.00 0.00 0.00 89 1016.9
20260903065510 76 61 0.0 0.0 0.00 0.00 0.00 89 1016.9
20260903065011 76 61 0.0 0.0 0.00 0.00 0.00 88 1016.8
20260903064524 76 61 0.0 0.0 0.00 0.00 0.00 88 1016.9
20260903064003 76 61 0.0 0.0 0.00 0.00 0.00 88 1016.9
20260903063503 76 61 0.0 0.0 0.00 0.00 0.00 88 1017.0
20260903063004 76 61 0.0 0.0 0.00 0.00 0.00 89 1017.1
20260903062507 76 61 0.0 0.0 0.00 0.00 0.00 88 1017.0
20260903062004 76 61 0.0 0.0 0.00 0.00 0.00 88 1017.1
20260903061521 76 61 0.0 0.0 0.00 0.00 0.00 88 1017.1
20260903061005 76 61 0.0 0.0 0.00 0.00 0.00 88 1017.1
20260903060510 76 61 0.0 0.0 0.00 0.00 0.00 88 1017.1
20260903060015 76 61 0.0 0.0 0.00 0.00 0.00 88 1017.2
20260903055507 76 61 0.0 0.0 0.00 0.00 0.00 88 1017.1
20260903055007 76 61 0.0 0.0 0.00 0.00 0.00 87 1017.1
20260903054521 76 61 0.0 0.0 0.00 0.00 0.00 86 1017.3
20260903054010 76 61 0.0 0.0 0.00 0.00 0.00 87 1017.3
20260903053512 76 61 0.0 0.0 0.00 0.00 0.00 87 1017.3
20260903053029 76 61 0.0 0.0 0.00 0.00 0.00 87 1017.2